JAG544 TNCM-KFLL

Flight info

Callsign JAG544
Flight time N/A
Altitude 38000
Route PJM B520 STT RTE6 SJU DCT ACONY Y280 SAPPO Y399 ZQA OLAHS3
Aircraft A320/M-SDE3FGHIRWY/LB1

Departure

Time 2026-05-06 20:25
Airport Princess Juliana International Airport (TNCM)

Arrival

Time N/A
Airport Fort Lauderdale Hollywood International Airport (KFLL)
Time Latitude Longitude Altitude Speed Heading
2026-05-06 19:57 18.04314 -63.11499 21 ft 0 kts 351°
2026-05-06 20:17 18.04297 -63.11496 30 ft 2 kts 351°
2026-05-06 20:17 18.04280 -63.11493 21 ft 2 kts 351°
2026-05-06 20:17 18.04263 -63.11491 24 ft 2 kts 351°
2026-05-06 20:18 18.04247 -63.11485 24 ft 2 kts 293°
2026-05-06 20:18 18.04246 -63.11468 24 ft 2 kts 258°
2026-05-06 20:18 18.04250 -63.11451 23 ft 2 kts 258°
2026-05-06 20:18 18.04249 -63.11435 22 ft 2 kts 287°
2026-05-06 20:19 18.04244 -63.11418 22 ft 2 kts 287°
2026-05-06 20:19 18.04239 -63.11402 23 ft 2 kts 274°
2026-05-06 20:19 18.04238 -63.11395 22 ft 0 kts 253°
2026-05-06 20:21 18.04237 -63.11401 23 ft 2 kts 253°
2026-05-06 20:21 18.04231 -63.11426 23 ft 5 kts 257°
2026-05-06 20:22 18.04220 -63.11470 23 ft 7 kts 250°
2026-05-06 20:22 18.04186 -63.11522 21 ft 10 kts 231°
2026-05-06 20:22 18.04139 -63.11582 21 ft 12 kts 230°
2026-05-06 20:22 18.04083 -63.11654 21 ft 14 kts 231°
2026-05-06 20:23 18.04055 -63.11751 21 ft 15 kts 272°
2026-05-06 20:23 18.04041 -63.11848 21 ft 0 kts 261°
2026-05-06 20:23 18.04041 -63.11853 21 ft 2 kts 261°
2026-05-06 20:23 18.04037 -63.11875 21 ft 4 kts 257°
2026-05-06 20:24 18.04023 -63.11911 22 ft 6 kts 242°
2026-05-06 20:24 18.03993 -63.11954 22 ft 8 kts 226°
2026-05-06 20:24 18.03948 -63.11948 22 ft 8 kts 116°
2026-05-06 20:24 18.03952 -63.11882 22 ft 11 kts 82°
2026-05-06 20:25 18.03988 -63.11630 22 ft 70 kts 82°
2026-05-06 20:25 18.04085 -63.10947 23 ft 124 kts 82°
2026-05-06 20:25 18.04233 -63.09912 235 ft 150 kts 80°
2026-05-06 20:25 18.04311 -63.08817 774 ft 160 kts 100°
2026-05-06 20:26 18.03781 -63.07739 1058 ft 185 kts 134°
2026-05-06 20:26 18.02576 -63.07069 1518 ft 214 kts 168°
2026-05-06 20:26 18.01002 -63.07017 1986 ft 240 kts 178°
2026-05-06 20:26 17.99255 -63.07060 2650 ft 256 kts 180°
2026-05-06 20:27 17.97441 -63.07124 3604 ft 260 kts 180°
2026-05-06 20:27 17.95650 -63.07121 4535 ft 262 kts 171°
2026-05-06 20:27 17.93945 -63.06433 5466 ft 264 kts 149°
2026-05-06 20:27 17.92345 -63.05468 6441 ft 266 kts 150°
2026-05-06 20:28 17.90705 -63.04522 7284 ft 272 kts 151°
2026-05-06 20:28 17.88917 -63.03824 8044 ft 280 kts 173°
2026-05-06 20:28 17.86972 -63.04034 8774 ft 288 kts 200°
2026-05-06 20:28 17.85301 -63.05195 9564 ft 293 kts 229°
2026-05-06 20:29 17.84260 -63.07045 10251 ft 302 kts 250°
2026-05-06 20:29 17.83943 -63.09289 10504 ft 324 kts 276°
2026-05-06 20:29 17.84631 -63.11593 10870 ft 339 kts 298°
2026-05-06 20:29 17.85779 -63.13775 11536 ft 344 kts 300°
2026-05-06 20:30 17.86940 -63.15983 12289 ft 346 kts 300°
2026-05-06 20:30 17.89247 -63.20403 13579 ft 350 kts 299°
2026-05-06 20:30 17.90413 -63.22660 14116 ft 354 kts 300°
2026-05-06 20:31 17.91590 -63.24940 14687 ft 356 kts 299°
2026-05-06 20:31 17.92775 -63.27236 15276 ft 358 kts 300°
2026-05-06 20:31 17.93964 -63.29541 15871 ft 360 kts 299°
2026-05-06 20:31 17.95159 -63.31863 16437 ft 363 kts 299°
2026-05-06 20:32 17.96367 -63.34203 17014 ft 366 kts 300°
2026-05-06 20:32 17.97585 -63.36556 17607 ft 368 kts 300°
2026-05-06 20:32 17.98810 -63.38925 18213 ft 370 kts 300°
2026-05-06 20:32 18.00040 -63.41307 18730 ft 372 kts 300°
2026-05-06 20:33 18.01282 -63.43714 19216 ft 376 kts 299°
2026-05-06 20:33 18.02534 -63.46143 19688 ft 380 kts 300°
2026-05-06 20:33 18.03800 -63.48597 20163 ft 384 kts 300°
2026-05-06 20:33 18.05075 -63.51075 20610 ft 387 kts 300°
2026-05-06 20:34 18.06365 -63.53583 21066 ft 391 kts 300°
2026-05-06 20:34 18.07665 -63.56111 21507 ft 395 kts 300°
2026-05-06 20:34 18.08958 -63.58627 21931 ft 398 kts 300°
2026-05-06 20:34 18.10280 -63.61200 22366 ft 402 kts 300°
2026-05-06 20:35 18.11615 -63.63801 22789 ft 405 kts 300°
2026-05-06 20:35 18.12814 -63.66496 23202 ft 410 kts 291°
2026-05-06 20:35 18.13562 -63.69413 23599 ft 416 kts 282°
2026-05-06 20:35 18.14062 -63.72419 23952 ft 419 kts 281°
2026-05-06 20:36 18.14568 -63.75444 24330 ft 421 kts 282°
2026-05-06 20:36 18.15078 -63.78476 24723 ft 422 kts 282°
2026-05-06 20:36 18.15593 -63.81522 25111 ft 424 kts 282°
2026-05-06 20:36 18.16110 -63.84580 25502 ft 425 kts 282°
2026-05-06 20:37 18.16630 -63.87645 25875 ft 427 kts 281°
2026-05-06 20:37 18.17152 -63.90727 26262 ft 429 kts 281°
2026-05-06 20:37 18.17670 -63.93821 26644 ft 430 kts 281°
2026-05-06 20:37 18.18189 -63.96926 27014 ft 432 kts 281°
2026-05-06 20:38 18.18712 -64.00043 27378 ft 433 kts 281°
2026-05-06 20:38 18.19235 -64.03171 27756 ft 435 kts 281°
2026-05-06 20:38 18.19759 -64.06310 28128 ft 437 kts 281°
2026-05-06 20:38 18.20284 -64.09467 28503 ft 439 kts 281°
2026-05-06 20:39 18.20809 -64.12637 28895 ft 441 kts 281°
2026-05-06 20:39 18.21338 -64.15821 29274 ft 443 kts 281°
2026-05-06 20:39 18.21873 -64.19028 29649 ft 445 kts 281°
2026-05-06 20:39 18.22411 -64.22248 30019 ft 447 kts 281°
2026-05-06 20:40 18.22953 -64.25483 30352 ft 449 kts 281°
2026-05-06 20:40 18.23494 -64.28724 30683 ft 451 kts 281°
2026-05-06 20:40 18.24034 -64.31975 31026 ft 452 kts 280°
2026-05-06 20:40 18.24565 -64.35193 31365 ft 453 kts 280°
2026-05-06 20:41 18.25105 -64.38457 31761 ft 452 kts 280°
2026-05-06 20:41 18.25646 -64.41703 32279 ft 449 kts 280°
2026-05-06 20:41 18.26184 -64.44926 32808 ft 445 kts 279°
2026-05-06 20:41 18.26715 -64.48121 33334 ft 442 kts 279°
2026-05-06 20:42 18.27240 -64.51294 33865 ft 439 kts 279°
2026-05-06 20:42 18.27760 -64.54452 34346 ft 436 kts 279°
2026-05-06 20:42 18.28277 -64.57583 34788 ft 433 kts 278°
2026-05-06 20:42 18.28790 -64.60706 35208 ft 431 kts 278°
2026-05-06 20:43 18.29300 -64.63807 35620 ft 429 kts 278°
2026-05-06 20:43 18.29806 -64.66898 36013 ft 428 kts 278°
2026-05-06 20:43 18.30304 -64.69953 36391 ft 426 kts 278°
2026-05-06 20:43 18.30801 -64.73022 36758 ft 424 kts 277°
2026-05-06 20:44 18.31295 -64.76077 37114 ft 423 kts 277°
2026-05-06 20:44 18.31791 -64.79127 37476 ft 422 kts 277°
2026-05-06 20:44 18.32287 -64.82166 37826 ft 420 kts 277°
2026-05-06 20:44 18.32784 -64.85193 38046 ft 420 kts 277°
2026-05-06 20:45 18.33281 -64.88218 38087 ft 419 kts 277°
2026-05-06 20:45 18.34259 -64.94223 38080 ft 418 kts 277°
2026-05-06 20:46 18.35136 -65.00263 38085 ft 416 kts 270°
2026-05-06 20:46 18.34434 -65.06258 38084 ft 414 kts 252°
2026-05-06 20:47 18.32668 -65.12030 38081 ft 414 kts 252°
2026-05-06 20:47 18.30916 -65.17813 38080 ft 415 kts 252°
2026-05-06 20:48 18.29739 -65.23734 38085 ft 416 kts 267°
2026-05-06 20:48 18.30255 -65.28775 38089 ft 419 kts 279°
2026-05-06 20:49 18.31507 -65.34781 38088 ft 420 kts 279°
2026-05-06 20:49 18.32754 -65.40803 38083 ft 421 kts 279°
2026-05-06 20:50 18.33992 -65.46838 38080 ft 422 kts 279°
2026-05-06 20:50 18.35232 -65.52877 38094 ft 422 kts 279°
2026-05-06 20:51 18.36470 -65.58925 38097 ft 423 kts 279°
2026-05-06 20:51 18.37696 -65.64940 38094 ft 423 kts 279°
2026-05-06 20:52 18.38937 -65.70989 38082 ft 424 kts 279°
2026-05-06 20:52 18.40182 -65.77057 38076 ft 424 kts 279°
2026-05-06 20:53 18.41418 -65.83126 38072 ft 424 kts 279°
2026-05-06 20:53 18.42659 -65.89202 38075 ft 424 kts 279°
2026-05-06 20:54 18.43954 -65.95274 38068 ft 426 kts 285°
2026-05-06 20:54 18.46701 -66.00826 38066 ft 434 kts 305°
2026-05-06 20:55 18.50983 -66.05364 38047 ft 438 kts 313°
2026-05-06 20:55 18.55399 -66.09817 38072 ft 439 kts 313°
2026-05-06 20:56 18.59808 -66.14284 38067 ft 440 kts 313°
2026-05-06 20:56 18.64217 -66.18758 38066 ft 440 kts 313°
2026-05-06 20:57 18.68620 -66.23230 38065 ft 440 kts 313°
2026-05-06 20:57 18.73005 -66.27680 38056 ft 440 kts 313°
2026-05-06 20:58 18.77420 -66.32157 38059 ft 440 kts 313°
2026-05-06 20:58 18.81825 -66.36638 38058 ft 439 kts 313°
2026-05-06 20:59 18.86228 -66.41120 38060 ft 439 kts 313°
2026-05-06 20:59 18.90637 -66.45599 38073 ft 439 kts 313°
2026-05-06 21:00 18.94797 -66.50306 38069 ft 436 kts 307°
2026-05-06 21:00 18.98703 -66.55210 38067 ft 436 kts 307°
2026-05-06 21:01 19.02605 -66.60109 38066 ft 436 kts 308°
2026-05-06 21:01 19.06508 -66.65008 38073 ft 435 kts 308°
2026-05-06 21:02 19.10409 -66.69905 38071 ft 435 kts 308°
2026-05-06 21:02 19.14269 -66.74772 38068 ft 435 kts 308°
2026-05-06 21:03 19.18168 -66.79681 38068 ft 435 kts 308°
2026-05-06 21:03 19.22063 -66.84580 38071 ft 435 kts 308°
2026-05-06 21:04 19.25959 -66.89489 38069 ft 435 kts 308°
2026-05-06 21:04 19.29845 -66.94392 38089 ft 434 kts 309°
2026-05-06 21:05 19.33720 -66.99290 38088 ft 433 kts 309°
2026-05-06 21:05 19.37583 -67.04180 38088 ft 433 kts 309°
2026-05-06 21:06 19.41452 -67.09075 38086 ft 432 kts 309°
2026-05-06 21:06 19.45288 -67.13931 38086 ft 432 kts 309°
2026-05-06 21:07 19.49137 -67.18817 38084 ft 432 kts 309°
2026-05-06 21:07 19.52998 -67.23715 38081 ft 432 kts 310°
2026-05-06 21:08 19.56852 -67.28600 38087 ft 431 kts 310°
2026-05-06 21:08 19.60700 -67.33475 38085 ft 431 kts 310°
2026-05-06 21:09 19.64538 -67.38354 38088 ft 431 kts 310°
2026-05-06 21:09 19.68353 -67.43220 38091 ft 431 kts 310°
2026-05-06 21:10 19.72222 -67.48143 38084 ft 432 kts 310°
2026-05-06 21:10 19.76045 -67.53003 38085 ft 432 kts 310°
2026-05-06 21:11 19.79880 -67.57908 38080 ft 432 kts 311°
2026-05-06 21:11 19.83718 -67.62828 38082 ft 432 kts 311°
2026-05-06 21:12 19.87552 -67.67739 38087 ft 432 kts 311°
2026-05-06 21:12 19.91386 -67.72639 38083 ft 432 kts 311°
2026-05-06 21:13 19.95232 -67.77541 38084 ft 432 kts 311°
2026-05-06 21:13 19.99069 -67.82451 38080 ft 431 kts 311°
2026-05-06 21:14 20.02898 -67.87368 38082 ft 431 kts 311°
2026-05-06 21:14 20.06728 -67.92282 38082 ft 431 kts 311°
2026-05-06 21:15 20.10559 -67.97196 38085 ft 431 kts 311°
2026-05-06 21:15 20.14358 -68.02083 38087 ft 431 kts 311°
2026-05-06 21:16 20.18209 -68.07041 38085 ft 431 kts 311°
2026-05-06 21:16 20.22007 -68.11932 38084 ft 431 kts 311°
2026-05-06 21:17 20.25836 -68.16857 38084 ft 431 kts 311°
2026-05-06 21:17 20.29657 -68.21787 38077 ft 431 kts 312°
2026-05-06 21:18 20.33477 -68.26708 38082 ft 430 kts 312°
2026-05-06 21:18 20.37290 -68.31629 38083 ft 430 kts 312°
2026-05-06 21:19 20.41094 -68.36547 38090 ft 429 kts 312°
2026-05-06 21:19 20.44675 -68.41652 38088 ft 432 kts 303°
2026-05-06 21:20 20.47700 -68.47145 38083 ft 432 kts 304°
2026-05-06 21:20 20.50755 -68.52663 38081 ft 432 kts 304°
2026-05-06 21:21 20.53799 -68.58186 38081 ft 432 kts 304°
2026-05-06 21:21 20.56835 -68.63720 38085 ft 431 kts 304°
2026-05-06 21:22 20.59870 -68.69242 38083 ft 431 kts 304°
2026-05-06 21:22 20.62903 -68.74758 38082 ft 431 kts 304°
2026-05-06 21:23 20.65935 -68.80275 38085 ft 431 kts 304°
2026-05-06 21:23 20.68962 -68.85800 38084 ft 431 kts 304°
2026-05-06 21:24 20.71987 -68.91332 38077 ft 430 kts 305°
2026-05-06 21:24 20.75007 -68.96849 38085 ft 430 kts 305°
2026-05-06 21:25 20.78032 -69.02365 38080 ft 430 kts 305°
2026-05-06 21:25 20.81045 -69.07877 38093 ft 430 kts 305°
2026-05-06 21:26 20.84042 -69.13398 38091 ft 429 kts 305°
2026-05-06 21:26 20.87045 -69.18910 38088 ft 428 kts 305°
2026-05-06 21:27 20.90036 -69.24406 38091 ft 427 kts 306°
2026-05-06 21:27 20.93016 -69.29882 38092 ft 425 kts 306°
2026-05-06 21:28 20.95984 -69.35344 38088 ft 424 kts 306°
2026-05-06 21:28 20.98946 -69.40801 38086 ft 424 kts 306°
2026-05-06 21:29 21.01890 -69.46217 38087 ft 423 kts 306°
2026-05-06 21:29 21.04851 -69.51668 38088 ft 423 kts 306°
2026-05-06 21:30 21.07798 -69.57117 38091 ft 422 kts 306°
2026-05-06 21:30 21.10736 -69.62555 38090 ft 421 kts 306°
2026-05-06 21:31 21.13663 -69.67976 38088 ft 420 kts 306°
2026-05-06 21:31 21.16590 -69.73388 38086 ft 420 kts 306°
2026-05-06 21:32 21.19523 -69.78800 38085 ft 419 kts 306°
2026-05-06 21:32 21.23406 -69.85993 38083 ft 418 kts 306°
2026-05-06 21:33 21.26301 -69.91392 38085 ft 417 kts 306°
2026-05-06 21:33 21.29193 -69.96779 38087 ft 416 kts 306°
2026-05-06 21:34 21.32083 -70.02153 38085 ft 415 kts 306°
2026-05-06 21:34 21.34960 -70.07516 38084 ft 415 kts 306°
2026-05-06 21:35 21.37839 -70.12883 38084 ft 415 kts 306°
2026-05-06 21:35 21.40714 -70.18252 38084 ft 415 kts 306°
2026-05-06 21:36 21.43581 -70.23617 38077 ft 414 kts 306°
2026-05-06 21:36 21.46433 -70.28945 38083 ft 414 kts 306°
2026-05-06 21:37 21.49291 -70.34299 38081 ft 413 kts 306°
2026-05-06 21:37 21.52145 -70.39659 38081 ft 413 kts 306°
2026-05-06 21:38 21.54995 -70.45014 38083 ft 412 kts 306°
2026-05-06 21:38 21.57842 -70.50366 38079 ft 412 kts 306°
2026-05-06 21:39 21.60690 -70.55703 38078 ft 412 kts 306°
2026-05-06 21:39 21.63527 -70.61044 38082 ft 411 kts 306°
2026-05-06 21:40 21.66356 -70.66380 38082 ft 411 kts 306°
2026-05-06 21:40 21.69187 -70.71721 38085 ft 411 kts 306°
2026-05-06 21:41 21.71992 -70.77020 38085 ft 410 kts 306°
2026-05-06 21:41 21.74816 -70.82356 38082 ft 410 kts 306°
2026-05-06 21:42 21.77637 -70.87688 38082 ft 410 kts 306°
2026-05-06 21:42 21.80454 -70.93021 38072 ft 410 kts 306°
2026-05-06 21:43 21.83268 -70.98358 38074 ft 410 kts 306°
2026-05-06 21:43 21.86075 -71.03693 38077 ft 410 kts 306°
2026-05-06 21:44 21.88883 -71.09043 38081 ft 410 kts 306°
2026-05-06 21:44 21.91689 -71.14383 38079 ft 410 kts 306°
2026-05-06 21:45 21.94501 -71.19723 38084 ft 410 kts 306°
2026-05-06 21:45 21.97291 -71.25030 38080 ft 410 kts 306°
2026-05-06 21:46 22.00099 -71.30375 38078 ft 409 kts 306°
2026-05-06 21:46 22.02894 -71.35721 38093 ft 409 kts 306°
2026-05-06 21:47 22.05689 -71.41073 38092 ft 409 kts 306°
2026-05-06 21:47 22.08482 -71.46410 38090 ft 409 kts 306°
2026-05-06 21:48 22.11269 -71.51750 38085 ft 408 kts 306°
2026-05-06 21:48 22.14048 -71.57087 38070 ft 408 kts 305°
2026-05-06 21:49 22.16826 -71.62432 38072 ft 408 kts 305°
2026-05-06 21:49 22.19582 -71.67738 38076 ft 408 kts 305°
2026-05-06 21:50 22.22370 -71.73082 38076 ft 408 kts 306°
2026-05-06 21:50 22.25153 -71.78426 38084 ft 408 kts 305°
2026-05-06 21:51 22.27929 -71.83767 38082 ft 408 kts 305°
2026-05-06 21:51 22.30704 -71.89120 38086 ft 408 kts 305°
2026-05-06 21:52 22.33470 -71.94464 38070 ft 408 kts 305°
2026-05-06 21:52 22.36242 -71.99819 38075 ft 408 kts 305°
2026-05-06 21:53 22.39008 -72.05173 38078 ft 408 kts 305°
2026-05-06 21:53 22.41774 -72.10526 38086 ft 408 kts 305°
2026-05-06 21:54 22.44526 -72.15893 38085 ft 407 kts 305°
2026-05-06 21:54 22.47269 -72.21245 38085 ft 407 kts 305°
2026-05-06 21:55 22.50007 -72.26558 38073 ft 407 kts 305°
2026-05-06 21:55 22.52757 -72.31898 38077 ft 406 kts 305°
2026-05-06 21:56 22.55509 -72.37237 38083 ft 406 kts 305°
2026-05-06 21:56 22.58248 -72.42579 38074 ft 406 kts 304°
2026-05-06 21:57 22.60987 -72.47925 38079 ft 406 kts 304°
2026-05-06 21:57 22.63724 -72.53272 38075 ft 406 kts 304°
2026-05-06 21:58 22.66461 -72.58626 38075 ft 406 kts 304°
2026-05-06 21:58 22.69194 -72.63977 38068 ft 406 kts 304°
2026-05-06 21:59 22.71908 -72.69297 38071 ft 406 kts 304°
2026-05-06 21:59 22.74637 -72.74646 38072 ft 406 kts 304°
2026-05-06 22:00 22.77365 -72.80004 38074 ft 406 kts 304°
2026-05-06 22:00 22.80078 -72.85362 38075 ft 406 kts 304°
2026-05-06 22:01 22.82795 -72.90722 38088 ft 405 kts 304°
2026-05-06 22:01 22.85506 -72.96077 38069 ft 405 kts 304°
2026-05-06 22:02 22.88217 -73.01431 38071 ft 405 kts 304°
2026-05-06 22:02 22.90926 -73.06780 38072 ft 404 kts 304°
2026-05-06 22:03 22.93632 -73.12124 38072 ft 404 kts 304°
2026-05-06 22:03 22.96330 -73.17483 38072 ft 404 kts 304°
2026-05-06 22:04 22.99010 -73.22799 38077 ft 404 kts 304°
2026-05-06 22:04 23.01711 -73.28162 38074 ft 404 kts 304°
2026-05-06 22:05 23.04407 -73.33522 38059 ft 404 kts 303°
2026-05-06 22:05 23.07095 -73.38886 38063 ft 404 kts 303°
2026-05-06 22:06 23.09793 -73.44254 38066 ft 404 kts 304°
2026-05-06 22:06 23.12497 -73.49619 38071 ft 404 kts 304°
2026-05-06 22:07 23.15181 -73.54985 38075 ft 405 kts 303°
2026-05-06 22:07 23.17852 -73.60333 38076 ft 405 kts 303°
2026-05-06 22:08 23.20539 -73.65714 38075 ft 405 kts 303°
2026-05-06 22:08 23.23218 -73.71094 38076 ft 404 kts 303°
2026-05-06 22:09 23.25899 -73.76469 38075 ft 404 kts 303°
2026-05-06 22:09 23.28580 -73.81845 38077 ft 404 kts 303°
2026-05-06 22:10 23.31258 -73.87223 38081 ft 404 kts 303°
2026-05-06 22:10 23.33932 -73.92600 38081 ft 404 kts 303°
2026-05-06 22:11 23.36602 -73.97986 38081 ft 404 kts 303°
2026-05-06 22:11 23.39280 -74.03380 38069 ft 404 kts 303°
2026-05-06 22:12 23.41948 -74.08771 38068 ft 405 kts 303°
2026-05-06 22:12 23.44623 -74.14172 38070 ft 405 kts 303°
2026-05-06 22:13 23.47296 -74.19580 38076 ft 405 kts 303°
2026-05-06 22:13 23.49954 -74.24958 38078 ft 405 kts 303°
2026-05-06 22:14 23.52622 -74.30379 38080 ft 406 kts 303°
2026-05-06 22:14 23.55288 -74.35794 38072 ft 406 kts 303°
2026-05-06 22:15 23.57964 -74.41224 38071 ft 406 kts 303°
2026-05-06 22:15 23.60630 -74.46659 38081 ft 406 kts 302°
2026-05-06 22:16 23.62134 -74.49725 38087 ft 406 kts 302°